Regional Weather Roundup
Issued by NWS

Home | Current Version | Previous Version | Graphics & Text | Print | Product List | Glossary On
Versions: 1 2 3 4 5 6 7 8 9 10 11 12 13 14 15 16 17 18 19 20 21 22 23 24 25 26 27 28 29 30 31 32 33 34 35 36 37 38 39 40 41 42 43 44 45 46 47 48 49 50
000
ASUS43 KFSD 300510
RWRSD

WEATHER ROUNDUP FOR SOUTH DAKOTA
NATIONAL WEATHER SERVICE SIOUX FALLS SD
1200 AM CDT SUN AUG 30 2015

NOTE: "FAIR" INDICATES FEW OR NO CLOUDS BELOW 12,000 FEET WITH NO
SIGNIFICANT WEATHER AND/OR OBSTRUCTIONS TO VISIBILITY.


SDZ001>005-009-010-012>017-300600-
NORTHWEST AND NORTH CENTRAL SOUTH DAKOTA

CITY           SKY/WX    TMP DP  RH WIND       PRES   REMARKS
BUFFALO          N/A     71  54  54 S10       29.79F
FAITH            N/A     72  55  55 SE14      29.87F
MOBRIDGE       CLEAR     72  69  90 SE10      29.84S
$$

SDZ012>016-024>037-041>051-057-063-072>074-300600-
SOUTHWEST AND SOUTH CENTRAL SOUTH DAKOTA

CITY           SKY/WX    TMP DP  RH WIND       PRES   REMARKS
RAPID CTY ARPT PTCLDY    71  47  42 SE7       29.92F
PIERRE         CLEAR     75  61  61 SE13      29.86F
CUSTER         PTCLDY    70  36  28 S5        30.12F
ELLSWORTH AFB  PTCLDY    74  46  37 S5        29.91F
PHILIP         PTCLDY    71  54  54 VRB6      29.88S
PINE RIDGE     CLEAR     79  44  28 S14G23    29.97F
WINNER         FAIR      76  59  55 S16       29.93F
$$

SDZ004>011-016>023-039-040-300600-
NORTHEAST SOUTH DAKOTA

CITY           SKY/WX    TMP DP  RH WIND       PRES   REMARKS
ABERDEEN       CLEAR     68  64  87 S10       29.89S
WATERTOWN      CLEAR     64  62  93 S10       29.95S
BROOKINGS      CLEAR     64  61  88 SE8       30.00F
SISSETON         N/A     65  63  93 S8        29.89F
$$

SDZ017-020-022-023-036>040-048>070-300600-
SOUTHEAST SOUTH DAKOTA

CITY           SKY/WX    TMP DP  RH WIND       PRES   REMARKS
SIOUX FALLS    PTCLDY    64  61  90 S9        30.00F
HURON          CLEAR     67  65  93 S9        29.91F
CHAMBERLAIN    CLEAR     68  61  79 SE3       29.92S
MITCHELL       CLEAR     67  66  97 S10       29.94F
YANKTON        CLEAR     64  63  94 S8        29.99S
$$

ABBREVIATIONS USED IN REMARKS
   TC - TEMPERATURE IN CELSIUS
  WCI - WIND CHILL INDEX
   HX - HEAT INDEX
  VSB - VISIBILITY



USA.gov is the U.S. government's official web portal to all federal, state and local government web resources and services.